Weather observations for the past three days for
Fayetteville, Drake Field
Imperial (Metric)
Date Time (cdt) Wind (mph) Vis. (mi.) Weather Sky Cond. Temperature (ºF) Relative Humidity Wind Chill (°F) Heat Index (°F) Pressure Precipitation (in)
Air Dwpt 6 hour altimeter (in) sea level (mb) 1 hr 3 hr 6 hr
Max. Min.
21 17:53 Calm 10.00 Partly Cloudy SCT065 73.9 68 82% 30.04 1016.1
21 16:53 Calm 6.00 Light Rain FEW025 OVC060 72 66.9 84% 30.06 1016.5 0.05
21 15:53 Vrbl 3 2.00 Thunderstorm in Vicinity Rain Fog/Mist SCT017 BKN026 OVC034 72 68 87% 30.06 1016.8 0.1 0.1
21 14:53 S 6 10.00 Mostly Cloudy SCT023 BKN041 BKN065 78.1 66 67% 80 30.06 1016.7
21 13:53 Calm 10.00 Mostly Cloudy SCT023 BKN041 BKN055 77 66 69% 79 30.09 1017.5
21 12:53 S 8 10.00 Overcast SCT021 BKN026 OVC036 75.9 66.9 75.9 66 74% 77 30.1 1018.2 0.45
21 11:53 Vrbl 3 10.00 Mostly Cloudy SCT009 BKN029 73 66.9 81% 30.11 1018.6
21 10:53 Calm 10.00 Mostly Cloudy BKN006 BKN070 71.1 66 84% 30.11 1018.4 0.01
21 09:53 S 5 5.00 Light Rain Fog/Mist OVC100 68 66 93% 30.11 1018.6 0.06 0.44
21 08:53 S 3 4.00 Rain Fog/Mist FEW004 BKN090 OVC110 66.9 64.9 93% 30.12 1018.7 0.16
21 07:53 S 7 2.50 Heavy Rain Fog/Mist FEW015 BKN050 OVC100 66.9 64.9 93% 30.12 1018.6 0.22
21 06:53 SE 3 1.75 Thunderstorm Heavy Rain Fog/Mist FEW035 OVC044 66 64 71.1 66 93% 30.1 1017.9 0.79 1.29
21 05:53 NW 3 1.00 Thunderstorm Heavy Rain Fog/Mist SCT022 BKN044 OVC050 66.9 64 91% 30.09 1017.5 0.5
21 04:53 E 6 10.00 Mostly Cloudy FEW048 BKN090 70 63 79% 30.06 1016.5
21 03:53 E 3 10.00 Overcast FEW049 OVC070 69.1 63 81% 30.06 1016.4
21 02:53 Calm 10.00 Mostly Cloudy BKN075 68 64.9 90% 30.07 1016.6
21 01:53 E 3 10.00 Fair CLR 69.1 64 84% 30.08 1017.1
21 00:53 Calm 10.00 Mostly Cloudy FEW050 BKN120 68 64.9 82 68 90% 30.09 1017.5
20 23:53 Calm 10.00 Fair CLR 69.1 66 90% 30.09 1017.5
20 22:53 Calm 10.00 A Few Clouds FEW110 70 64.9 84% 30.09 1017.6
20 21:53 Calm 10.00 Fair CLR 72 64.9 79% 30.07 1017.0
20 20:53 Calm 10.00 Partly Cloudy FEW042 SCT055 75 66 74% 76 30.07 1016.8
20 19:53 SE 3 10.00 Mostly Cloudy SCT049 BKN100 79 64.9 62% 81 30.06 1016.8
20 18:53 E 7 10.00 Partly Cloudy SCT050 82 64.9 84.9 81 56% 84 30.06 1016.8
20 17:53 Calm 10.00 Mostly Cloudy BKN055 BKN110 82 66 58% 84 30.06 1016.8
20 16:53 NE 3 10.00 A Few Clouds FEW110 82.9 64.9 55% 85 30.06 1016.7
20 15:53 Calm 10.00 Fair CLR 84.9 63 48% 86 30.06 1016.7
20 14:53 Calm 10.00 Fair CLR 84.9 63 48% 86 30.07 1017.0
20 13:53 Calm 10.00 Fair CLR 84 63 49% 85 30.09 1017.7
20 12:53 Calm 10.00 A Few Clouds FEW047 82 63 82.9 60.1 53% 83 30.11 1018.5
20 11:53 SW 8 10.00 A Few Clouds FEW060 80.1 62.1 54% 81 30.13 1019.0
20 10:53 SE 7 10.00 Overcast OVC055 78.1 60.1 54% 79 30.15 1019.6
20 09:53 S 8 10.00 Mostly Cloudy BKN050 75.9 61 60% 78 30.14 1019.4
20 08:53 Calm 10.00 A Few Clouds FEW046 71.1 62.1 73% 30.13 1019.0
20 07:53 Calm 10.00 Fair CLR 64 60.1 87% 30.13 1019.1
20 06:53 Calm 8.00 Fair CLR 60.1 57 66 57.9 90% 30.11 1018.4
20 05:53 Calm 9.00 Fair CLR 59 57 93% 30.1 1018.1
20 04:53 Calm 10.00 Fair CLR 60.1 57 90% 30.1 1018.0
20 03:53 Calm 10.00 Fair CLR 61 57.9 90% 30.08 1017.4
20 02:53 Calm 10.00 Fair CLR 62.1 59 90% 30.08 1017.1
20 01:53 Calm 10.00 Fair CLR 63 60.1 90% 30.09 1017.7
20 00:53 Calm 10.00 A Few Clouds FEW055 66 60.1 82 64 81% 30.09 1017.7
19 23:53 Calm 10.00 Overcast OVC050 66 61 84% 30.1 1018.0
19 22:53 Calm 10.00 Fair CLR 66.9 61 81% 30.11 1018.3
19 21:53 Calm 10.00 Fair CLR 69.1 60.1 73% 30.11 1018.3
19 20:53 Calm 10.00 Fair CLR 73 59 62% 30.08 1017.2
19 19:53 E 5 10.00 Fair CLR 78.1 59 52% 79 30.07 1017.0
19 18:53 E 7 10.00 Fair CLR 82 57.9 84.9 80.1 44% 82 30.07 1017.0
19 17:53 NE 3 10.00 Fair CLR 82.9 57.9 43% 83 30.07 1016.9
19 16:53 N 6 10.00 Fair CLR 84 57.9 41% 83 30.07 1017.2
19 15:53 Vrbl 5 10.00 Partly Cloudy SCT055 84 59 43% 84 30.08 1017.5
19 14:53 E 6 10.00 A Few Clouds FEW055 82.9 59 44% 83 30.11 1018.4
19 13:53 N 5 10.00 Mostly Cloudy BKN055 82 59 46% 82 30.13 1019.0
19 12:53 Vrbl 3 10.00 Partly Cloudy SCT050 81 57 82 57.9 44% 81 30.14 1019.6
19 11:53 Calm 10.00 Fair CLR 80.1 59 49% 81 30.16 1020.2
19 10:53 Calm 10.00 Fair CLR 78.1 59 52% 79 30.17 1020.3
19 09:53 E 5 10.00 Fair CLR 75 62.1 64% 77 30.17 1020.4
19 08:53 Calm 10.00 Fair CLR 69.1 61 76% 30.18 1020.9
19 07:53 Calm 10.00 Fair CLR 62.1 57.9 86% 30.18 1020.6
19 06:53 Calm 8.00 Fair CLR 57.9 55.9 63 57 93% 30.17 1020.7
19 05:53 Calm 0.50 Fog VV003 57.9 55.9 93% 30.16 1020.1
19 04:53 Calm 8.00 Fair CLR 57.9 55.9 93% 30.15 1019.7
19 03:53 Calm 9.00 Fair CLR 60.1 57 90% 30.14 1019.5
19 02:53 Calm 9.00 Fair CLR 60.1 57 90% 30.15 1019.8
19 01:53 Calm 10.00 Fair CLR 61 57.9 90% 30.16 1020.1
19 00:53 NW 3 10.00 Fair CLR 63 59 82 63 87% 30.16 1020.0
18 23:53 Calm 10.00 Fair CLR 64 60.1 87% 30.16 1020.1
18 22:53 Calm 10.00 Fair CLR 66 60.1 81% 30.15 1019.6
18 21:53 Calm 10.00 Fair CLR 70 59 68% 30.13 1019.1
18 20:53 Calm 10.00 Fair CLR 73.9 57 56% 30.12 1018.6
18 19:53 N 5 10.00 Fair CLR 79 57 47% 80 30.1 1017.9
18 18:53 NE 7 10.00 Fair CLR 82 57 86 81 43% 82 30.1 1017.9
Date Time (cdt) Wind (mph) Vis. (mi.) Weather Sky Cond. Air Dwpt Max. Min. Relative Humidity Wind Chill (°F) Heat Index (°F) altimeter (in) sea level (mb) 1 hr 3 hr 6 hr
6 hour
Temperature (ºF) Pressure Precipitation (in)